| time (UTC) | temp F | wind direction | speed knots | gust knots | rain 1hr in | rain 24hr in | rain mn in | humidity % | barometer mb |
| 20260831055939 | 65 | 315 | 0.0 | 0.0 | 0.00 | 0.00 | 0.00 | 83 | 1015.3 |
| 20260831055439 | 63 | 315 | 0.0 | 0.0 | 0.00 | 0.00 | 0.00 | 86 | 1015.2 |
| 20260831054937 | 63 | 315 | 0.0 | 0.0 | 0.00 | 0.00 | 0.00 | 85 | 1015.4 |
| 20260831054439 | 62 | 315 | 0.0 | 0.0 | 0.00 | 0.00 | 0.00 | 89 | 1015.4 |
| 20260831053937 | 62 | 315 | 0.0 | 0.0 | 0.00 | 0.00 | 0.00 | 90 | 1015.2 |
| 20260831053442 | 61 | 315 | 0.0 | 0.0 | 0.00 | 0.00 | 0.00 | 91 | 1015.2 |
| 20260831052943 | 61 | 315 | 0.0 | 0.0 | 0.00 | 0.00 | 0.00 | 91 | 1015.2 |
| 20260831051441 | 60 | 315 | 0.0 | 0.0 | 0.00 | 0.00 | 0.00 | 90 | 1015.1 |
| 20260831045426 | 60 | 316 | 0.0 | 0.0 | 0.00 | 0.00 | 0.00 | 90 | 1015.0 |
| 20260831044426 | 60 | 316 | 0.0 | 0.0 | 0.00 | 0.00 | 0.00 | 90 | 1015.0 |
| 20260831043926 | 60 | 316 | 0.0 | 0.0 | 0.00 | 0.00 | 0.00 | 90 | 1015.0 |
| 20260831043427 | 60 | 316 | 0.0 | 0.0 | 0.00 | 0.00 | 0.00 | 90 | 1015.1 |
| 20260831042929 | 60 | 316 | 0.0 | 0.0 | 0.00 | 0.00 | 0.00 | 90 | 1014.8 |
| 20260831042401 | 60 | 316 | 0.0 | 0.0 | 0.00 | 0.00 | 0.00 | 89 | 1014.7 |
| 20260831041902 | 60 | 316 | 0.0 | 0.0 | 0.00 | 0.00 | 0.00 | 89 | 1014.8 |
| 20260831041407 | 60 | 316 | 0.0 | 0.0 | 0.00 | 0.00 | 0.00 | 89 | 1014.8 |
| 20260831040402 | 60 | 316 | 0.0 | 0.0 | 0.00 | 0.00 | 0.00 | 89 | 1014.8 |
| 20260831035905 | 60 | 316 | 0.0 | 0.0 | 0.00 | 0.00 | 0.00 | 88 | 1014.7 |
| 20260831035402 | 60 | 316 | 0.0 | 0.0 | 0.00 | 0.00 | 0.00 | 89 | 1014.6 |
| 20260831034350 | 60 | 316 | 0.0 | 0.0 | 0.00 | 0.00 | 0.00 | 88 | 1014.6 |
| 20260831033854 | 60 | 316 | 0.0 | 0.0 | 0.00 | 0.00 | 0.00 | 88 | 1014.6 |
| 20260831032344 | 61 | 316 | 0.0 | 0.0 | 0.00 | 0.00 | 0.00 | 87 | 1014.5 |
| 20260831031837 | 61 | 316 | 0.0 | 0.0 | 0.00 | 0.00 | 0.00 | 87 | 1014.3 |
| 20260831031338 | 61 | 316 | 0.0 | 0.0 | 0.00 | 0.00 | 0.00 | 87 | 1014.8 |
| 20260831030841 | 61 | 316 | 0.0 | 0.0 | 0.00 | 0.00 | 0.00 | 87 | 1014.6 |
| 20260831030339 | 61 | 316 | 0.0 | 0.0 | 0.00 | 0.00 | 0.00 | 87 | 1014.8 |
| 20260831025838 | 61 | 316 | 0.0 | 0.0 | 0.00 | 0.00 | 0.00 | 86 | 1014.7 |
| 20260831025339 | 61 | 316 | 0.0 | 0.0 | 0.00 | 0.00 | 0.00 | 86 | 1014.7 |
| 20260831024844 | 61 | 316 | 0.0 | 0.0 | 0.00 | 0.00 | 0.00 | 86 | 1014.8 |
| 20260831023338 | 61 | 315 | 0.0 | 0.0 | 0.00 | 0.00 | 0.00 | 85 | 1014.6 |
| 20260831022849 | 61 | 316 | 0.0 | 0.0 | 0.00 | 0.00 | 0.00 | 85 | 1014.8 |
| 20260831022343 | 61 | 315 | 0.0 | 0.0 | 0.00 | 0.00 | 0.00 | 85 | 1014.7 |
| 20260831021838 | 62 | 316 | 0.0 | 0.0 | 0.00 | 0.00 | 0.00 | 85 | 1014.8 |
| 20260831021338 | 62 | 316 | 0.0 | 0.0 | 0.00 | 0.00 | 0.00 | 85 | 1014.8 |
| 20260831020337 | 62 | 316 | 0.0 | 0.0 | 0.00 | 0.00 | 0.00 | 85 | 1014.9 |
| 20260831015343 | 62 | 316 | 0.0 | 0.0 | 0.00 | 0.00 | 0.00 | 84 | 1014.8 |
| 20260831014837 | 62 | 316 | 0.0 | 0.0 | 0.00 | 0.00 | 0.00 | 84 | 1014.7 |
| 20260831014338 | 62 | 315 | 0.0 | 0.0 | 0.00 | 0.00 | 0.00 | 84 | 1014.7 |
| 20260831013840 | 62 | 315 | 0.0 | 0.0 | 0.00 | 0.00 | 0.00 | 83 | 1015.0 |
| 20260831013341 | 62 | 315 | 0.0 | 0.0 | 0.00 | 0.00 | 0.00 | 83 | 1015.0 |
| 20260831012837 | 62 | 315 | 0.0 | 0.0 | 0.00 | 0.00 | 0.00 | 82 | 1014.8 |
| 20260831012341 | 63 | 315 | 0.0 | 0.0 | 0.00 | 0.00 | 0.00 | 82 | 1014.9 |
| 20260831011838 | 63 | 315 | 0.0 | 0.0 | 0.00 | 0.00 | 0.00 | 81 | 1014.7 |
| 20260831010840 | 64 | 316 | 0.0 | 0.0 | 0.00 | 0.00 | 0.00 | 81 | 1014.6 |
| 20260831010341 | 64 | 315 | 0.0 | 0.0 | 0.00 | 0.00 | 0.00 | 80 | 1014.7 |
| 20260831005341 | 64 | 315 | 0.0 | 0.9 | 0.00 | 0.00 | 0.00 | 79 | 1014.8 |
| 20260831004839 | 64 | 315 | 0.0 | 0.9 | 0.00 | 0.00 | 0.00 | 79 | 1014.6 |
| 20260831004347 | 65 | 315 | 0.0 | 0.0 | 0.00 | 0.00 | 0.00 | 78 | 1014.6 |
| 20260831003833 | 65 | 315 | 0.0 | 0.0 | 0.00 | 0.00 | 0.00 | 77 | 1014.8 |
| 20260831003329 | 65 | 315 | 0.0 | 0.0 | 0.00 | 0.00 | 0.00 | 77 | 1014.6 |
| 20260831002832 | 65 | 315 | 0.0 | 0.0 | 0.00 | 0.00 | 0.00 | 76 | 1014.9 |
| 20260831001816 | 66 | 315 | 0.0 | 0.9 | 0.00 | 0.00 | 0.00 | 74 | 1014.6 |
| 20260831001318 | 66 | 315 | 0.0 | 0.9 | 0.00 | 0.00 | 0.00 | 73 | 1014.5 |
| 20260831000805 | 67 | 315 | 0.0 | 0.9 | 0.00 | 0.00 | 0.00 | 73 | 1014.7 |
| 20260831000303 | 67 | 315 | 0.0 | 0.9 | 0.00 | 0.00 | 0.00 | 72 | 1014.7 |
| 20260830235803 | 67 | 317 | 0.0 | 0.9 | 0.00 | 0.00 | 0.00 | 72 | 1014.6 |
| 20260830234750 | 67 | 317 | 0.0 | 1.7 | 0.00 | 0.00 | 0.00 | 70 | 1014.6 |
| 20260830234253 | 68 | 317 | 0.0 | 0.9 | 0.00 | 0.00 | 0.00 | 69 | 1014.8 |
| 20260830233240 | 68 | 312 | 0.0 | 1.7 | 0.00 | 0.00 | 0.00 | 68 | 1014.7 |
| 20260830232738 | 69 | 320 | 0.0 | 1.7 | 0.00 | 0.00 | 0.00 | 68 | 1014.7 |
| 20260830230740 | 69 | 326 | 0.0 | 1.7 | 0.00 | 0.00 | 0.00 | 66 | 1014.8 |
| 20260830230239 | 69 | 358 | 0.0 | 1.7 | 0.00 | 0.00 | 0.00 | 67 | 1014.9 |
| 20260830225238 | 69 | 352 | 0.0 | 2.6 | 0.00 | 0.00 | 0.00 | 66 | 1014.7 |
| 20260830224241 | 69 | 300 | 0.0 | 2.6 | 0.00 | 0.00 | 0.00 | 66 | 1014.8 |
| 20260830222738 | 69 | 308 | 0.0 | 1.7 | 0.00 | 0.00 | 0.00 | 65 | 1014.6 |
| 20260830222238 | 69 | 324 | 0.0 | 0.9 | 0.00 | 0.00 | 0.00 | 65 | 1014.5 |
| 20260830221756 | 70 | 330 | 0.0 | 0.0 | 0.00 | 0.00 | 0.00 | 65 | 1014.6 |
| 20260830221242 | 70 | 330 | 0.0 | 0.0 | 0.00 | 0.00 | 0.00 | 65 | 1014.6 |
| 20260830220740 | 70 | 345 | 0.0 | 0.9 | 0.00 | 0.00 | 0.00 | 64 | 1014.4 |
| 20260830220231 | 70 | 338 | 0.0 | 1.7 | 0.00 | 0.00 | 0.00 | 63 | 1014.3 |
| 20260830215725 | 70 | 319 | 0.0 | 1.7 | 0.00 | 0.00 | 0.00 | 63 | 1014.5 |
| 20260830215228 | 71 | 339 | 0.0 | 1.7 | 0.00 | 0.00 | 0.00 | 63 | 1014.5 |
| 20260830214728 | 71 | 307 | 0.0 | 1.7 | 0.00 | 0.00 | 0.00 | 63 | 1014.5 |
| 20260830214226 | 71 | 328 | 0.0 | 0.9 | 0.00 | 0.00 | 0.00 | 63 | 1014.3 |
| 20260830213728 | 71 | 320 | 0.0 | 0.9 | 0.00 | 0.00 | 0.00 | 62 | 1014.3 |
| 20260830213225 | 72 | 312 | 0.9 | 1.7 | 0.00 | 0.00 | 0.00 | 60 | 1014.3 |
| 20260830212746 | 73 | 312 | 0.0 | 1.7 | 0.00 | 0.00 | 0.00 | 59 | 1014.4 |
| 20260830212231 | 73 | 306 | 0.0 | 2.6 | 0.00 | 0.00 | 0.00 | 58 | 1014.2 |
| 20260830210728 | 72 | 308 | 0.9 | 3.5 | 0.00 | 0.00 | 0.00 | 59 | 1013.9 |
| 20260830210226 | 72 | 310 | 1.7 | 1.7 | 0.00 | 0.00 | 0.00 | 60 | 1014.1 |
| 20260830205725 | 72 | 315 | 0.0 | 2.6 | 0.00 | 0.00 | 0.00 | 59 | 1013.7 |
| 20260830205228 | 71 | 315 | 0.9 | 3.5 | 0.00 | 0.00 | 0.00 | 59 | 1014.1 |
| 20260830204731 | 70 | 308 | 0.9 | 3.5 | 0.00 | 0.00 | 0.00 | 60 | 1013.8 |
| 20260830204229 | 69 | 309 | 0.0 | 1.7 | 0.00 | 0.00 | 0.00 | 61 | 1013.9 |
| 20260830203729 | 69 | 345 | 0.0 | 0.0 | 0.00 | 0.00 | 0.00 | 61 | 1014.0 |
| 20260830202732 | 70 | 344 | 0.0 | 0.9 | 0.00 | 0.00 | 0.00 | 60 | 1013.9 |
| 20260830202228 | 69 | 344 | 0.9 | 0.9 | 0.00 | 0.00 | 0.00 | 60 | 1014.1 |
| 20260830201730 | 70 | 352 | 0.0 | 0.0 | 0.00 | 0.00 | 0.00 | 60 | 1014.1 |
| 20260830201228 | 70 | 352 | 0.0 | 0.9 | 0.00 | 0.00 | 0.00 | 60 | 1014.0 |
| 20260830200714 | 70 | 351 | 0.0 | 0.9 | 0.00 | 0.00 | 0.00 | 59 | 1013.9 |
| 20260830200226 | 70 | 356 | 0.0 | 0.0 | 0.00 | 0.00 | 0.00 | 58 | 1013.8 |
| 20260830195209 | 71 | 356 | 0.0 | 0.0 | 0.00 | 0.00 | 0.00 | 56 | 1014.0 |
| 20260830194705 | 71 | 355 | 0.0 | 0.9 | 0.00 | 0.00 | 0.00 | 55 | 1013.7 |
| 20260830194202 | 71 | 355 | 0.0 | 0.9 | 0.00 | 0.00 | 0.00 | 54 | 1013.8 |
| 20260830193656 | 72 | 354 | 0.0 | 0.9 | 0.00 | 0.00 | 0.00 | 53 | 1013.9 |
| 20260830193155 | 72 | 354 | 0.0 | 0.0 | 0.00 | 0.00 | 0.00 | 51 | 1013.8 |
| 20260830192650 | 73 | 354 | 0.0 | 0.0 | 0.00 | 0.00 | 0.00 | 50 | 1013.7 |
| 20260830192137 | 73 | 354 | 0.0 | 0.0 | 0.00 | 0.00 | 0.00 | 49 | 1013.7 |
| 20260830191141 | 74 | 354 | 0.0 | 0.9 | 0.00 | 0.00 | 0.00 | 47 | 1013.6 |
| 20260830190642 | 75 | 354 | 0.0 | 0.9 | 0.00 | 0.00 | 0.00 | 46 | 1013.5 |
| 20260830190137 | 75 | 354 | 0.0 | 0.9 | 0.00 | 0.00 | 0.00 | 44 | 1013.6 |
| 20260830185141 | 76 | 302 | 0.0 | 0.9 | 0.00 | 0.00 | 0.00 | 44 | 1013.4 |
| 20260830184630 | 76 | 301 | 0.0 | 0.9 | 0.00 | 0.00 | 0.00 | 45 | 1013.5 |
| 20260830184129 | 76 | 301 | 0.0 | 0.9 | 0.00 | 0.00 | 0.00 | 44 | 1013.3 |
| 20260830183626 | 77 | 304 | 0.9 | 0.9 | 0.00 | 0.00 | 0.00 | 44 | 1013.1 |
| 20260830183128 | 77 | 304 | 0.0 | 0.9 | 0.00 | 0.00 | 0.00 | 42 | 1013.1 |
| 20260830182625 | 78 | 305 | 0.0 | 0.9 | 0.00 | 0.00 | 0.00 | 42 | 1013.2 |
| 20260830182135 | 78 | 304 | 0.0 | 0.9 | 0.00 | 0.00 | 0.00 | 41 | 1013.0 |
| 20260830181627 | 79 | 305 | 0.0 | 0.9 | 0.00 | 0.00 | 0.00 | 41 | 1012.8 |
| 20260830181125 | 80 | 307 | 0.0 | 0.9 | 0.00 | 0.00 | 0.00 | 39 | 1013.0 |
| 20260830180625 | 81 | 305 | 0.0 | 1.7 | 0.00 | 0.00 | 0.00 | 39 | 1012.7 |
| 20260830180128 | 82 | 305 | 0.0 | 2.6 | 0.00 | 0.00 | 0.00 | 38 | 1012.8 |
| 20260830175125 | 84 | 313 | 1.7 | 2.6 | 0.00 | 0.00 | 0.00 | 33 | 1012.9 |
| 20260830174628 | 85 | 318 | 1.7 | 2.6 | 0.00 | 0.00 | 0.00 | 31 | 1012.7 |
| 20260830174127 | 85 | 314 | 0.9 | 5.2 | 0.00 | 0.00 | 0.00 | 31 | 1012.6 |
| 20260830173629 | 86 | 311 | 0.9 | 5.2 | 0.00 | 0.00 | 0.00 | 30 | 1012.5 |
| 20260830173116 | 86 | 316 | 0.9 | 5.2 | 0.00 | 0.00 | 0.00 | 30 | 1012.5 |
| 20260830172614 | 86 | 313 | 0.9 | 1.7 | 0.00 | 0.00 | 0.00 | 32 | 1012.4 |
| 20260830172116 | 86 | 310 | 0.9 | 2.6 | 0.00 | 0.00 | 0.00 | 32 | 1012.3 |
| 20260830171602 | 86 | 312 | 0.0 | 5.2 | 0.00 | 0.00 | 0.00 | 31 | 1012.2 |
| 20260830171103 | 87 | 319 | 1.7 | 5.2 | 0.00 | 0.00 | 0.00 | 31 | 1012.4 |
| 20260830170601 | 87 | 309 | 0.9 | 5.2 | 0.00 | 0.00 | 0.00 | 31 | 1012.3 |
| 20260830170051 | 87 | 308 | 2.6 | 5.2 | 0.00 | 0.00 | 0.00 | 30 | 1012.3 |
| 20260830164539 | 87 | 336 | 0.0 | 2.6 | 0.00 | 0.00 | 0.00 | 31 | 1012.2 |
| 20260830164046 | 88 | 322 | 0.0 | 3.5 | 0.00 | 0.00 | 0.00 | 31 | 1012.0 |
| 20260830163539 | 88 | 315 | 0.9 | 3.5 | 0.00 | 0.00 | 0.00 | 30 | 1012.1 |
| 20260830163039 | 88 | 335 | 0.0 | 6.1 | 0.00 | 0.00 | 0.00 | 30 | 1011.8 |
| 20260830162040 | 89 | 18 | 0.9 | 5.2 | 0.00 | 0.00 | 0.00 | 29 | 1011.9 |
| 20260830161540 | 89 | 325 | 0.9 | 5.2 | 0.00 | 0.00 | 0.00 | 28 | 1012.1 |
| 20260830161038 | 89 | 310 | 0.9 | 5.2 | 0.00 | 0.00 | 0.00 | 27 | 1011.9 |
| 20260830160540 | 89 | 313 | 0.0 | 5.2 | 0.00 | 0.00 | 0.00 | 28 | 1011.8 |
| 20260830160038 | 89 | 320 | 3.5 | 6.1 | 0.00 | 0.00 | 0.00 | 27 | 1012.1 |
| 20260830155543 | 89 | 303 | 3.5 | 6.1 | 0.00 | 0.00 | 0.00 | 27 | 1012.0 |
| 20260830155040 | 90 | 309 | 1.7 | 5.2 | 0.00 | 0.00 | 0.00 | 28 | 1012.0 |
| 20260830154539 | 90 | 317 | 0.0 | 3.5 | 0.00 | 0.00 | 0.00 | 29 | 1012.0 |
| 20260830154038 | 90 | 299 | 0.0 | 5.2 | 0.00 | 0.00 | 0.00 | 29 | 1012.0 |
| 20260830153541 | 90 | 317 | 2.6 | 5.2 | 0.00 | 0.00 | 0.00 | 27 | 1012.0 |
| 20260830152539 | 90 | 322 | 0.9 | 5.2 | 0.00 | 0.00 | 0.00 | 28 | 1012.0 |
| 20260830152040 | 90 | 327 | 3.5 | 5.2 | 0.00 | 0.00 | 0.00 | 27 | 1012.1 |
| 20260830151544 | 90 | 324 | 3.5 | 5.2 | 0.00 | 0.00 | 0.00 | 27 | 1012.0 |
| 20260830151041 | 90 | 326 | 1.7 | 7.0 | 0.00 | 0.00 | 0.00 | 29 | 1012.1 |
| 20260830150041 | 90 | 315 | 5.2 | 7.8 | 0.00 | 0.00 | 0.00 | 28 | 1012.1 |
| 20260830145548 | 90 | 310 | 1.7 | 7.8 | 0.00 | 0.00 | 0.00 | 28 | 1012.2 |
| 20260830144538 | 90 | 309 | 3.5 | 6.1 | 0.00 | 0.00 | 0.00 | 28 | 1012.3 |
| 20260830143544 | 90 | 306 | 1.7 | 7.0 | 0.00 | 0.00 | 0.00 | 29 | 1012.0 |
| 20260830143041 | 90 | 343 | 0.0 | 7.0 | 0.00 | 0.00 | 0.00 | 30 | 1012.1 |
| 20260830142039 | 90 | 318 | 1.7 | 7.0 | 0.00 | 0.00 | 0.00 | 29 | 1012.3 |
| 20260830141537 | 90 | 316 | 3.5 | 7.0 | 0.00 | 0.00 | 0.00 | 28 | 1012.3 |
| 20260830141027 | 90 | 323 | 1.7 | 7.0 | 0.00 | 0.00 | 0.00 | 29 | 1012.3 |
| 20260830140529 | 90 | 314 | 3.5 | 7.0 | 0.00 | 0.00 | 0.00 | 28 | 1012.3 |
| 20260830140031 | 90 | 318 | 3.5 | 7.0 | 0.00 | 0.00 | 0.00 | 29 | 1012.5 |
| 20260830135531 | 91 | 318 | 2.6 | 8.7 | 0.00 | 0.00 | 0.00 | 28 | 1012.4 |
| 20260830135028 | 91 | 6 | 0.0 | 8.7 | 0.00 | 0.00 | 0.00 | 29 | 1012.5 |
| 20260830134525 | 91 | 309 | 4.3 | 6.1 | 0.00 | 0.00 | 0.00 | 28 | 1012.7 |
| 20260830134029 | 91 | 331 | 2.6 | 5.2 | 0.00 | 0.00 | 0.00 | 28 | 1012.6 |
| 20260830133527 | 91 | 330 | 0.0 | 8.7 | 0.00 | 0.00 | 0.00 | 29 | 1012.8 |
| 20260830133026 | 91 | 307 | 3.5 | 9.6 | 0.00 | 0.00 | 0.00 | 28 | 1012.5 |
| 20260830132026 | 92 | 340 | 0.0 | 7.8 | 0.00 | 0.00 | 0.00 | 27 | 1012.8 |
| 20260830131525 | 94 | 317 | 3.5 | 7.8 | 0.00 | 0.00 | 0.00 | 26 | 1012.7 |
| 20260830131030 | 94 | 304 | 0.0 | 6.1 | 0.00 | 0.00 | 0.00 | 26 | 1012.8 |
| 20260830130530 | 95 | 50 | 0.9 | 6.1 | 0.00 | 0.00 | 0.00 | 27 | 1012.6 |
| 20260830130026 | 96 | 82 | 0.0 | 1.7 | 0.00 | 0.00 | 0.00 | 25 | 1012.9 |
| 20260830125530 | 95 | 120 | 0.0 | 1.7 | 0.00 | 0.00 | 0.00 | 25 | 1012.8 |
| 20260830125026 | 95 | 78 | 0.0 | 1.7 | 0.00 | 0.00 | 0.00 | 27 | 1012.9 |
| 20260830124535 | 95 | 254 | 0.0 | 0.9 | 0.00 | 0.00 | 0.00 | 27 | 1012.8 |
| 20260830124031 | 94 | 244 | 0.0 | 1.7 | 0.00 | 0.00 | 0.00 | 26 | 1012.9 |
| 20260830123529 | 94 | 224 | 0.9 | 1.7 | 0.00 | 0.00 | 0.00 | 27 | 1013.0 |
| 20260830123028 | 93 | 260 | 0.0 | 2.6 | 0.00 | 0.00 | 0.00 | 27 | 1013.0 |
| 20260830122531 | 94 | 357 | 0.9 | 2.6 | 0.00 | 0.00 | 0.00 | 27 | 1012.9 |
| 20260830122029 | 94 | 3 | 0.0 | 1.7 | 0.00 | 0.00 | 0.00 | 30 | 1013.0 |
| 20260830121529 | 94 | 304 | 0.0 | 1.7 | 0.00 | 0.00 | 0.00 | 28 | 1013.2 |
| 20260830120525 | 94 | 199 | 0.0 | 0.9 | 0.00 | 0.00 | 0.00 | 27 | 1013.2 |
| 20260830115528 | 94 | 252 | 0.0 | 0.9 | 0.00 | 0.00 | 0.00 | 27 | 1013.3 |
| 20260830115026 | 93 | 313 | 0.0 | 1.7 | 0.00 | 0.00 | 0.00 | 29 | 1012.9 |
| 20260830114028 | 94 | 190 | 0.0 | 0.9 | 0.00 | 0.00 | 0.00 | 27 | 1013.2 |
| 20260830113526 | 93 | 203 | 0.0 | 0.9 | 0.00 | 0.00 | 0.00 | 31 | 1013.2 |
| 20260830113026 | 92 | 199 | 0.0 | 0.9 | 0.00 | 0.00 | 0.00 | 31 | 1013.4 |
| 20260830112531 | 91 | 0 | 0.0 | 3.5 | 0.00 | 0.00 | 0.00 | 30 | 1013.3 |
| 20260830112033 | 91 | 314 | 0.9 | 3.5 | 0.00 | 0.00 | 0.00 | 30 | 1013.2 |
| 20260830111030 | 93 | 223 | 0.9 | 1.7 | 0.00 | 0.00 | 0.00 | 28 | 1013.0 |
| 20260830110530 | 93 | 197 | 0.9 | 1.7 | 0.00 | 0.00 | 0.00 | 27 | 1013.5 |
| 20260830110035 | 91 | 252 | 0.0 | 2.6 | 0.00 | 0.00 | 0.00 | 28 | 1013.4 |
| 20260830105532 | 90 | 311 | 0.0 | 2.6 | 0.00 | 0.00 | 0.00 | 30 | 1013.3 |
| 20260830104529 | 90 | 305 | 0.0 | 5.2 | 0.00 | 0.00 | 0.00 | 32 | 1013.5 |
| 20260830104030 | 91 | 353 | 0.0 | 1.7 | 0.00 | 0.00 | 0.00 | 30 | 1013.4 |
| 20260830103529 | 91 | 219 | 0.0 | 2.6 | 0.00 | 0.00 | 0.00 | 31 | 1013.7 |
| 20260830103029 | 90 | 251 | 0.0 | 2.6 | 0.00 | 0.00 | 0.00 | 30 | 1013.6 |
| 20260830102532 | 90 | 312 | 0.9 | 5.2 | 0.00 | 0.00 | 0.00 | 32 | 1013.6 |
| 20260830102030 | 90 | 310 | 0.0 | 5.2 | 0.00 | 0.00 | 0.00 | 31 | 1013.5 |
| 20260830101516 | 90 | 302 | 0.0 | 3.5 | 0.00 | 0.00 | 0.00 | 34 | 1013.6 |
| 20260830101014 | 89 | 305 | 0.0 | 3.5 | 0.00 | 0.00 | 0.00 | 35 | 1013.7 |
| 20260830100514 | 89 | 310 | 1.7 | 2.6 | 0.00 | 0.00 | 0.00 | 33 | 1013.8 |
| 20260830100002 | 89 | 311 | 0.0 | 2.6 | 0.00 | 0.00 | 0.00 | 37 | 1013.9 |
| 20260830095502 | 88 | 299 | 0.0 | 1.7 | 0.00 | 0.00 | 0.00 | 34 | 1014.0 |
| 20260830095004 | 89 | 173 | 0.0 | 0.0 | 0.00 | 0.00 | 0.00 | 36 | 1014.0 |
| 20260830094457 | 89 | 173 | 0.0 | 0.0 | 0.00 | 0.00 | 0.00 | 35 | 1014.2 |
| 20260830093952 | 88 | 174 | 0.0 | 0.9 | 0.00 | 0.00 | 0.00 | 39 | 1014.2 |
| 20260830093453 | 88 | 174 | 0.0 | 0.9 | 0.00 | 0.00 | 0.00 | 40 | 1014.3 |
| 20260830092945 | 88 | 177 | 0.0 | 0.9 | 0.00 | 0.00 | 0.00 | 36 | 1014.2 |
| 20260830092441 | 87 | 149 | 0.0 | 0.9 | 0.00 | 0.00 | 0.00 | 41 | 1014.3 |
| 20260830091950 | 87 | 127 | 0.0 | 0.9 | 0.00 | 0.00 | 0.00 | 38 | 1014.3 |
| 20260830091443 | 85 | 126 | 0.0 | 0.9 | 0.00 | 0.00 | 0.00 | 40 | 1014.3 |
| 20260830090944 | 85 | 126 | 0.0 | 0.9 | 0.00 | 0.00 | 0.00 | 43 | 1014.2 |
| 20260830090440 | 85 | 127 | 0.0 | 0.9 | 0.00 | 0.00 | 0.00 | 43 | 1014.5 |
| 20260830085944 | 84 | 127 | 0.0 | 0.9 | 0.00 | 0.00 | 0.00 | 43 | 1014.4 |
| 20260830084943 | 82 | 109 | 0.0 | 0.9 | 0.00 | 0.00 | 0.00 | 46 | 1014.5 |
| 20260830084443 | 83 | 33 | 0.0 | 0.0 | 0.00 | 0.00 | 0.00 | 43 | 1014.5 |
| 20260830083943 | 82 | 21 | 0.0 | 0.0 | 0.00 | 0.00 | 0.00 | 45 | 1014.5 |
| 20260830083431 | 81 | 20 | 0.0 | 0.0 | 0.00 | 0.00 | 0.00 | 48 | 1014.6 |
| 20260830082931 | 81 | 0 | 0.0 | 0.0 | 0.00 | 0.00 | 0.00 | 52 | 1014.6 |
| 20260830082428 | 80 | 0 | 0.0 | 0.9 | 0.00 | 0.00 | 0.00 | 55 | 1014.6 |
| 20260830081934 | 79 | 0 | 0.0 | 0.9 | 0.00 | 0.00 | 0.00 | 51 | 1014.7 |
| 20260830081426 | 79 | 316 | 0.0 | 0.0 | 0.00 | 0.00 | 0.00 | 55 | 1014.7 |
| 20260830080928 | 79 | 315 | 0.0 | 0.0 | 0.00 | 0.00 | 0.00 | 53 | 1014.7 |
| 20260830080427 | 78 | 316 | 0.0 | 0.0 | 0.00 | 0.00 | 0.00 | 52 | 1014.7 |
| 20260830075932 | 78 | 316 | 0.0 | 0.0 | 0.00 | 0.00 | 0.00 | 54 | 1014.6 |
| 20260830075430 | 77 | 316 | 0.0 | 0.0 | 0.00 | 0.00 | 0.00 | 57 | 1014.7 |
| 20260830074428 | 76 | 315 | 0.0 | 0.0 | 0.00 | 0.00 | 0.00 | 58 | 1014.7 |
| 20260830073928 | 75 | 315 | 0.0 | 0.0 | 0.00 | 0.00 | 0.00 | 61 | 1014.5 |
| 20260830073427 | 75 | 315 | 0.0 | 0.0 | 0.00 | 0.00 | 0.00 | 58 | 1014.7 |
| 20260830072933 | 74 | 315 | 0.0 | 0.0 | 0.00 | 0.00 | 0.00 | 56 | 1014.7 |
| 20260830071934 | 72 | 315 | 0.0 | 0.0 | 0.00 | 0.00 | 0.00 | 64 | 1015.0 |
| 20260830070938 | 71 | 315 | 0.0 | 0.0 | 0.00 | 0.00 | 0.00 | 64 | 1014.7 |
| 20260830065933 | 69 | 315 | 0.0 | 0.0 | 0.00 | 0.00 | 0.00 | 68 | 1014.8 |
| 20260830064931 | 68 | 315 | 0.0 | 0.0 | 0.00 | 0.00 | 0.00 | 69 | 1014.9 |
| 20260830064426 | 68 | 315 | 0.0 | 0.0 | 0.00 | 0.00 | 0.00 | 68 | 1014.9 |
| 20260830063930 | 68 | 315 | 0.0 | 0.0 | 0.00 | 0.00 | 0.00 | 69 | 1014.7 |
| 20260830063428 | 67 | 315 | 0.0 | 0.0 | 0.00 | 0.00 | 0.00 | 71 | 1015.0 |
| 20260830062928 | 65 | 315 | 0.0 | 0.0 | 0.00 | 0.00 | 0.00 | 75 | 1014.6 |
| 20260830062427 | 65 | 315 | 0.0 | 0.0 | 0.00 | 0.00 | 0.00 | 76 | 1014.8 |
| 20260830061930 | 64 | 315 | 0.0 | 0.0 | 0.00 | 0.00 | 0.00 | 76 | 1014.7 |